Topeka, KS

6:52 AM CDT on June 25, 2017 (GMT -0500)
Billard Municipal

Weather History for KTOP - January, 2014

Change the Weather History Date:

Wednesday, January 22, 2014

  Actual Average Record
Temperature  
Mean Temperature 25 °F 30 °F  
Max Temperature 41 °F 40 °F 71 °F (1967)
Min Temperature 9 °F 19 °F -13 °F (1930)
Degree Days  
Heating Degree Days 40 35  
Month to date heating degree days 815 777  
Since 1 July heating degree days 2919 2794  
Cooling Degree Days 0 0  
Month to date cooling degree days 0 0  
Year to date cooling degree days 0 0  
Moisture  
Dew Point 7 °F    
Average Humidity 43    
Maximum Humidity 60    
Minimum Humidity 25    
Precipitation  
Precipitation 0.00 in 0.03 in 0.78 in (1898)
Month to date precipitation 0.34 0.55  
Year to date precipitation 0.34 0.55  
Snow  
Snow 0.00 in 0.10 in 7.20 in (1898)
Month to date snowfall 3.8 3.4  
Year to date snowfall 3.8 3.4  
Since 1 July snowfall 8.1 9.9  
Snow Depth 0.00 in    
Sea Level Pressure  
Sea Level Pressure 30.27 in    
Wind  
Wind Speed 13 mph (NW)    
Max Wind Speed 29 mph    
Max Gust Speed 38 mph    
Visibility 10 miles    
Events      
T = Trace of Precipitation, MM = Missing Value Source: NWS Daily Summary

Daily Weather History Graph

Daily Weather History Graph

Search for Another Location

Airport or City:

Trip Planner

Search our weather history database for the weather conditions in past years. The results will help you decide how hot, cold, wet, or windy it might be!

Date:

Astronomy

Jan. 22, 2014 Rise Set
Actual Time 7:36 AM CST 5:32 PM CST
Civil Twilight 7:07 AM CST 6:00 PM CST
Nautical Twilight 6:35 AM CST 6:33 PM CST
Astronomical Twilight 6:03 AM CST 7:05 PM CST
Moon No Moon Rise 10:41 AM CST (1/22)
Length of Visible Light 10h 53m
Length of Day
9h 55m
Waning Gibbous, 65% of the Moon is Illuminated
Jan 22
Waning Gibbous
Jan 23
Last Quarter
Jan 30
New
Feb 6
First Quarter
Feb 14
Full

Hourly Weather History & Observations

Time (CST) Temp. Windchill Dew Point Humidity Pressure Visibility Wind Dir Wind Speed Gust Speed Precip Events Conditions
12:53 AM 19.9 °F 13.4 °F 1.9 °F 46% 30.15 in 10.0 mi SW 4.6 mph - N/A   Overcast
1:53 AM 21.0 °F 12.4 °F 3.0 °F 46% 30.14 in 10.0 mi WSW 6.9 mph - N/A   Overcast
2:53 AM 21.9 °F 14.5 °F 3.9 °F 46% 30.14 in 10.0 mi West 5.8 mph - N/A   Overcast
3:53 AM 21.9 °F 11.7 °F 6.1 °F 51% 30.14 in 10.0 mi West 9.2 mph - N/A   Overcast
4:53 AM 24.1 °F 17.0 °F 9.0 °F 53% 30.14 in 10.0 mi West 5.8 mph - N/A   Overcast
5:53 AM 26.1 °F 19.4 °F 10.9 °F 53% 30.14 in 10.0 mi West 5.8 mph - N/A   Mostly Cloudy
6:53 AM 25.0 °F 17.1 °F 12.9 °F 60% 30.17 in 10.0 mi WSW 6.9 mph - N/A   Partly Cloudy
7:53 AM 24.1 °F 17.0 °F 12.9 °F 62% 30.19 in 10.0 mi West 5.8 mph - N/A   Clear
8:53 AM 28.9 °F 18.2 °F 16.0 °F 58% 30.21 in 10.0 mi WNW 13.8 mph - N/A   Clear
9:53 AM 33.1 °F 22.2 °F 16.0 °F 50% 30.23 in 10.0 mi NNW 17.3 mph 29.9 mph N/A   Clear
10:53 AM 34.0 °F 23.8 °F 12.9 °F 42% 30.26 in 10.0 mi NNW 16.1 mph 24.2 mph N/A   Clear
11:53 AM 34.0 °F 26.0 °F 8.1 °F 34% 30.23 in 10.0 mi WNW 10.4 mph 17.3 mph N/A   Clear
12:53 PM 35.1 °F 31.0 °F 5.0 °F 28% 30.21 in 10.0 mi West 4.6 mph - N/A   Clear
1:53 PM 39.0 °F 31.4 °F 7.0 °F 27% 30.19 in 10.0 mi NW 12.7 mph - N/A   Clear
2:53 PM 39.9 °F 30.0 °F 9.0 °F 28% 30.19 in 10.0 mi NW 21.9 mph 27.6 mph N/A   Partly Cloudy
3:53 PM 39.0 °F 29.9 °F 12.0 °F 33% 30.19 in 10.0 mi NW 17.3 mph 26.5 mph N/A   Scattered Clouds
4:53 PM 36.0 °F 25.6 °F 12.0 °F 37% 30.22 in 10.0 mi NW 18.4 mph 27.6 mph N/A   Scattered Clouds
5:53 PM 34.0 °F 23.4 °F 16.0 °F 48% 30.26 in 10.0 mi NNW 17.3 mph 26.5 mph N/A   Overcast
6:53 PM 27.0 °F 13.2 °F 9.0 °F 47% 30.34 in 10.0 mi NNW 20.7 mph 34.5 mph N/A   Mostly Cloudy
7:53 PM 23.0 °F 8.0 °F 8.1 °F 53% 30.39 in 10.0 mi North 20.7 mph 32.2 mph N/A   Clear
8:53 PM 17.1 °F 0.1 °F 1.0 °F 50% 30.46 in 10.0 mi North 20.7 mph 32.2 mph N/A   Clear
9:53 PM 14.0 °F -3.4 °F -2.9 °F 47% 30.52 in 10.0 mi North 19.6 mph - N/A   Clear
10:53 PM 10.9 °F -7.9 °F -8.0 °F 42% 30.56 in 10.0 mi North 20.7 mph 29.9 mph N/A   Clear
11:53 PM 9.0 °F -6.6 °F -7.1 °F 48% 30.61 in 10.0 mi North 12.7 mph 20.7 mph N/A   Clear